Regional Weather Roundup
Issued by NWS

Home | Current Version | Previous Version | Graphics & Text | Print | Product List | Glossary On
Versions: 1 2 3 4 5 6 7 8 9 10 11 12 13 14 15 16 17 18 19 20 21 22 23 24 25 26 27 28 29 30 31 32 33 34 35 36 37 38 39 40 41 42 43 44 45 46 47 48 49 50
000
ASUS43 KBIS 160310
RWRND

NORTH DAKOTA REGIONAL WEATHER ROUNDUP
NATIONAL WEATHER SERVICE BISMARCK ND
1000 PM CDT TUE AUG 15 2017

NOTE: "FAIR" INDICATES FEW OR NO CLOUDS BELOW 12,000 FEET WITH NO
SIGNIFICANT WEATHER AND/OR OBSTRUCTIONS TO VISIBILITY.


NDZ001>003-009>011-017-160400-
NORTHWEST NORTH DAKOTA

CITY           SKY/WX    TMP DP  RH WIND       PRES   REMARKS
WILLISTON      MOCLDY    67  61  81 CALM      29.87R
MINOT          CLOUDY    61  59  93 N3        29.88R
MINOT AFB      CLOUDY    61  60  96 SE3       29.86S
$$

NDZ018>021-031>035-040>046-160400-
SOUTHWEST NORTH DAKOTA

CITY           SKY/WX    TMP DP  RH WIND       PRES   REMARKS
BISMARCK       LGT RAIN  64  63  96 NW3       29.84R
DICKINSON      CLOUDY    63  62  97 N3        29.90R
GARRISON         N/A     61  61 100 N7        29.87R
HETTINGER ARPT CLOUDY    62  60  93 N8        29.91R
$$

NDZ004>008-012>016-024-026-027-054-160400-
NORTHEAST NORTH DAKOTA

CITY           SKY/WX    TMP DP  RH WIND       PRES   REMARKS
GRAND FORKS    LGT RAIN  69  61  75 E3        29.87R
GRND FRKS AFB  CLOUDY    66  62  86 E3        29.88R
DEVILS LAKE    RAIN      63  61  93 E10       29.89R
$$

NDZ022-023-025-028>030-036>039-047>053-160400-
SOUTHEAST NORTH DAKOTA

CITY           SKY/WX    TMP DP  RH WIND       PRES   REMARKS
FARGO          CLOUDY    69  61  75 SE8       29.86R
JAMESTOWN      LGT RAIN  66  62  87 SE12      29.84R
$$





USA.gov is the U.S. government's official web portal to all federal, state and local government web resources and services.